| time (UTC) | temp C | wind direction | speed KPH | gust KPH | rain 1hr cm | rain 24hr cm | rain mn cm | humidity % | barometer mb |
| 20260506084831 | 1 | 183 | 0.0 | 9.7 | 0.00 | 0.03 | 0.00 | 55 | 1012.7 |
| 20260506084333 | 1 | 183 | 0.0 | 9.7 | 0.00 | 0.03 | 0.00 | 55 | 1012.7 |
| 20260506083832 | 1 | 182 | 0.0 | 9.7 | 0.00 | 0.03 | 0.00 | 54 | 1012.8 |
| 20260506083333 | 1 | 183 | 0.0 | 9.7 | 0.00 | 0.03 | 0.00 | 55 | 1012.7 |
| 20260506082833 | 1 | 183 | 0.0 | 9.7 | 0.00 | 0.03 | 0.00 | 54 | 1012.9 |
| 20260506082332 | 1 | 183 | 0.0 | 9.7 | 0.00 | 0.03 | 0.00 | 54 | 1013.0 |
| 20260506081832 | 1 | 183 | 0.0 | 9.7 | 0.00 | 0.03 | 0.00 | 54 | 1013.0 |
| 20260506081333 | 1 | 183 | 0.0 | 9.7 | 0.00 | 0.03 | 0.00 | 53 | 1013.1 |
| 20260506080833 | 1 | 183 | 0.0 | 9.7 | 0.00 | 0.03 | 0.00 | 53 | 1013.2 |
| 20260506080332 | 1 | 183 | 0.0 | 9.7 | 0.00 | 0.03 | 0.00 | 53 | 1013.1 |
| 20260506073332 | 2 | 183 | 0.0 | 9.7 | 0.00 | 0.03 | 0.00 | 52 | 1013.5 |
| 20260506072832 | 2 | 187 | 1.6 | 9.7 | 0.00 | 0.03 | 0.00 | 52 | 1013.7 |
| 20260506072333 | 2 | 165 | 0.0 | 9.7 | 0.00 | 0.03 | 0.00 | 52 | 1013.7 |
| 20260506071833 | 2 | 170 | 0.0 | 9.7 | 0.00 | 0.03 | 0.00 | 52 | 1013.7 |
| 20260506071331 | 2 | 169 | 0.0 | 9.7 | 0.00 | 0.03 | 0.00 | 51 | 1013.8 |
| 20260506070831 | 2 | 168 | 0.0 | 9.7 | 0.00 | 0.03 | 0.00 | 52 | 1013.7 |
| 20260506070332 | 2 | 168 | 0.0 | 9.7 | 0.00 | 0.03 | 0.00 | 52 | 1013.9 |
| 20260506062333 | 2 | 155 | 0.0 | 1.6 | 0.00 | 0.03 | 0.00 | 50 | 1014.5 |
| 20260506061833 | 3 | 155 | 0.0 | 1.6 | 0.00 | 0.03 | 0.00 | 50 | 1014.4 |
| 20260506061331 | 3 | 155 | 0.0 | 1.6 | 0.00 | 0.03 | 0.00 | 48 | 1014.6 |
| 20260506060832 | 3 | 155 | 0.0 | 1.6 | 0.00 | 0.03 | 0.00 | 49 | 1014.5 |
| 20260506060332 | 3 | 155 | 0.0 | 1.6 | 0.00 | 0.03 | 0.00 | 48 | 1014.6 |
| 20260506051332 | 4 | 140 | 0.0 | 12.9 | 0.00 | 0.03 | 0.03 | 44 | 1015.0 |
| 20260506050832 | 5 | 153 | 0.0 | 12.9 | 0.00 | 0.03 | 0.03 | 44 | 1014.9 |
| 20260506050333 | 5 | 153 | 0.0 | 12.9 | 0.00 | 0.03 | 0.03 | 44 | 1015.0 |
| 20260506044832 | 5 | 171 | 0.0 | 12.9 | 0.00 | 0.03 | 0.03 | 44 | 1015.0 |
| 20260506044332 | 5 | 171 | 0.0 | 12.9 | 0.00 | 0.03 | 0.03 | 44 | 1015.0 |
| 20260506043832 | 5 | 173 | 0.0 | 12.9 | 0.00 | 0.03 | 0.03 | 43 | 1014.9 |
| 20260506043332 | 5 | 173 | 0.0 | 12.9 | 0.00 | 0.03 | 0.03 | 44 | 1015.0 |
| 20260506042833 | 5 | 175 | 0.0 | 12.9 | 0.00 | 0.03 | 0.03 | 43 | 1015.0 |
| 20260506042331 | 5 | 173 | 0.0 | 12.9 | 0.00 | 0.03 | 0.03 | 43 | 1014.9 |
| 20260506041832 | 5 | 173 | 0.0 | 12.9 | 0.00 | 0.03 | 0.03 | 42 | 1015.1 |
| 20260506041332 | 6 | 175 | 0.0 | 12.9 | 0.00 | 0.03 | 0.03 | 42 | 1014.9 |
| 20260506040831 | 6 | 175 | 0.0 | 12.9 | 0.00 | 0.03 | 0.03 | 42 | 1015.1 |
| 20260506040331 | 6 | 175 | 0.0 | 12.9 | 0.00 | 0.03 | 0.03 | 41 | 1015.1 |
| 20260506035831 | 6 | 175 | 0.0 | 12.9 | 0.00 | 0.03 | 0.03 | 41 | 1015.1 |
| 20260506035332 | 6 | 175 | 0.0 | 12.9 | 0.00 | 0.03 | 0.03 | 40 | 1015.3 |
| 20260506034833 | 6 | 179 | 0.0 | 12.9 | 0.00 | 0.03 | 0.03 | 40 | 1015.3 |
| 20260506034331 | 6 | 179 | 0.0 | 12.9 | 0.00 | 0.03 | 0.03 | 40 | 1015.2 |
| 20260506033831 | 6 | 179 | 0.0 | 12.9 | 0.00 | 0.03 | 0.03 | 40 | 1015.1 |
| 20260506033332 | 6 | 179 | 0.0 | 12.9 | 0.00 | 0.03 | 0.03 | 38 | 1015.2 |
| 20260506032832 | 7 | 179 | 0.0 | 12.9 | 0.00 | 0.03 | 0.03 | 38 | 1015.1 |
| 20260506032332 | 7 | 179 | 0.0 | 12.9 | 0.00 | 0.03 | 0.03 | 37 | 1015.0 |
| 20260506031831 | 7 | 188 | 1.6 | 12.9 | 0.00 | 0.03 | 0.03 | 37 | 1015.0 |
| 20260506031331 | 7 | 188 | 1.6 | 12.9 | 0.00 | 0.03 | 0.03 | 36 | 1015.0 |
| 20260506030831 | 7 | 246 | 0.0 | 12.9 | 0.00 | 0.03 | 0.03 | 36 | 1015.0 |
| 20260506030331 | 7 | 281 | 0.0 | 12.9 | 0.00 | 0.03 | 0.03 | 35 | 1015.0 |
| 20260506025832 | 7 | 0 | 0.0 | 12.9 | 0.00 | 0.03 | 0.03 | 34 | 1014.9 |
| 20260506025332 | 7 | 338 | 0.0 | 12.9 | 0.00 | 0.03 | 0.03 | 34 | 1014.9 |
| 20260506024832 | 7 | 177 | 0.0 | 12.9 | 0.00 | 0.03 | 0.03 | 34 | 1014.9 |
| 20260506024332 | 7 | 181 | 0.0 | 12.9 | 0.00 | 0.03 | 0.03 | 34 | 1015.0 |
| 20260506023832 | 8 | 180 | 0.0 | 12.9 | 0.00 | 0.03 | 0.03 | 34 | 1014.9 |
| 20260506023332 | 8 | 163 | 0.0 | 12.9 | 0.00 | 0.03 | 0.03 | 33 | 1014.9 |
| 20260506022832 | 8 | 192 | 0.0 | 12.9 | 0.00 | 0.03 | 0.03 | 33 | 1014.9 |
| 20260506022332 | 8 | 190 | 1.6 | 12.9 | 0.00 | 0.03 | 0.03 | 32 | 1014.8 |
| 20260506021832 | 8 | 0 | 0.0 | 12.9 | 0.00 | 0.03 | 0.03 | 33 | 1014.8 |
| 20260506021332 | 8 | 24 | 0.0 | 12.9 | 0.00 | 0.03 | 0.03 | 31 | 1014.9 |
| 20260506020831 | 8 | 355 | 0.0 | 12.9 | 0.00 | 0.03 | 0.03 | 31 | 1014.9 |
| 20260506020331 | 8 | 28 | 0.0 | 12.9 | 0.00 | 0.03 | 0.03 | 31 | 1014.9 |
| 20260506015831 | 8 | 28 | 1.6 | 12.9 | 0.00 | 0.03 | 0.03 | 30 | 1014.9 |
| 20260506015331 | 8 | 343 | 0.0 | 12.9 | 0.00 | 0.03 | 0.03 | 31 | 1014.9 |
| 20260506014831 | 8 | 353 | 1.6 | 12.9 | 0.00 | 0.03 | 0.03 | 31 | 1014.8 |
| 20260506014331 | 9 | 24 | 0.0 | 12.9 | 0.00 | 0.03 | 0.03 | 31 | 1014.8 |
| 20260506013831 | 9 | 23 | 0.0 | 12.9 | 0.00 | 0.03 | 0.03 | 30 | 1014.9 |
| 20260506013331 | 9 | 23 | 0.0 | 12.9 | 0.00 | 0.03 | 0.03 | 30 | 1014.9 |
| 20260506012831 | 9 | 26 | 1.6 | 12.9 | 0.00 | 0.03 | 0.03 | 30 | 1015.0 |
| 20260506012330 | 9 | 26 | 1.6 | 12.9 | 0.00 | 0.03 | 0.03 | 30 | 1015.0 |
| 20260506011830 | 9 | 31 | 0.0 | 12.9 | 0.00 | 0.03 | 0.03 | 30 | 1014.9 |
| 20260506011330 | 9 | 27 | 0.0 | 12.9 | 0.00 | 0.03 | 0.03 | 30 | 1014.9 |
| 20260506010832 | 9 | 16 | 4.8 | 12.9 | 0.00 | 0.03 | 0.03 | 30 | 1014.8 |
| 20260506010332 | 10 | 13 | 1.6 | 12.9 | 0.00 | 0.03 | 0.03 | 30 | 1014.9 |
| 20260506005832 | 10 | 15 | 0.0 | 12.9 | 0.00 | 0.03 | 0.03 | 29 | 1015.0 |
| 20260506005332 | 10 | 339 | 3.2 | 12.9 | 0.00 | 0.03 | 0.03 | 29 | 1015.0 |
| 20260506004832 | 10 | 12 | 1.6 | 12.9 | 0.00 | 0.03 | 0.03 | 29 | 1015.0 |
| 20260506004331 | 10 | 10 | 1.6 | 12.9 | 0.00 | 0.03 | 0.03 | 30 | 1015.0 |
| 20260506003831 | 10 | 21 | 3.2 | 12.9 | 0.00 | 0.03 | 0.03 | 30 | 1014.9 |
| 20260506003331 | 10 | 5 | 0.0 | 12.9 | 0.00 | 0.03 | 0.03 | 31 | 1014.9 |
| 20260506002830 | 10 | 5 | 0.0 | 12.9 | 0.00 | 0.03 | 0.03 | 31 | 1014.9 |
| 20260506002332 | 10 | 31 | 0.0 | 12.9 | 0.00 | 0.03 | 0.03 | 31 | 1014.9 |
| 20260506001832 | 10 | 20 | 3.2 | 12.9 | 0.00 | 0.03 | 0.03 | 31 | 1015.0 |
| 20260506001332 | 10 | 176 | 0.0 | 12.9 | 0.00 | 0.03 | 0.03 | 32 | 1015.1 |
| 20260506000832 | 10 | 180 | 0.0 | 12.9 | 0.00 | 0.03 | 0.03 | 31 | 1015.1 |
| 20260506000331 | 10 | 172 | 0.0 | 12.9 | 0.00 | 0.03 | 0.03 | 31 | 1015.2 |
| 20260505235831 | 10 | 202 | 0.0 | 12.9 | 0.00 | 0.03 | 0.03 | 31 | 1015.1 |
| 20260505235331 | 10 | 174 | 3.2 | 12.9 | 0.00 | 0.03 | 0.03 | 31 | 1015.1 |
| 20260505234832 | 10 | 339 | 0.0 | 12.9 | 0.00 | 0.03 | 0.03 | 31 | 1015.1 |
| 20260505234331 | 10 | 30 | 0.0 | 12.9 | 0.00 | 0.03 | 0.03 | 30 | 1015.2 |
| 20260505233831 | 10 | 334 | 3.2 | 12.9 | 0.00 | 0.03 | 0.03 | 31 | 1015.2 |
| 20260505233331 | 10 | 8 | 0.0 | 12.9 | 0.00 | 0.03 | 0.03 | 31 | 1015.2 |
| 20260505232831 | 10 | 27 | 1.6 | 12.9 | 0.00 | 0.03 | 0.03 | 30 | 1015.3 |
| 20260505232331 | 10 | 15 | 3.2 | 12.9 | 0.00 | 0.03 | 0.03 | 30 | 1015.2 |
| 20260505231830 | 10 | 99 | 0.0 | 12.9 | 0.00 | 0.03 | 0.03 | 31 | 1015.3 |
| 20260505231330 | 10 | 173 | 3.2 | 12.9 | 0.00 | 0.03 | 0.03 | 32 | 1015.4 |
| 20260505230830 | 10 | 18 | 0.0 | 12.9 | 0.00 | 0.03 | 0.03 | 31 | 1015.5 |
| 20260505230330 | 10 | 22 | 1.6 | 12.9 | 0.00 | 0.03 | 0.03 | 31 | 1015.6 |
| 20260505225830 | 10 | 44 | 1.6 | 12.9 | 0.00 | 0.03 | 0.03 | 32 | 1015.6 |
| 20260505225330 | 10 | 211 | 1.6 | 12.9 | 0.00 | 0.03 | 0.03 | 31 | 1015.7 |
| 20260505224830 | 10 | 9 | 0.0 | 12.9 | 0.00 | 0.03 | 0.03 | 32 | 1015.7 |
| 20260505224330 | 10 | 31 | 0.0 | 12.9 | 0.00 | 0.03 | 0.03 | 31 | 1015.8 |
| 20260505223830 | 10 | 28 | 3.2 | 12.9 | 0.00 | 0.03 | 0.03 | 31 | 1015.9 |
| 20260505223332 | 10 | 6 | 1.6 | 12.9 | 0.00 | 0.03 | 0.03 | 31 | 1015.9 |
| 20260505222831 | 10 | 31 | 1.6 | 12.9 | 0.00 | 0.03 | 0.03 | 31 | 1015.9 |
| 20260505222331 | 10 | 335 | 0.0 | 12.9 | 0.00 | 0.03 | 0.03 | 31 | 1016.0 |
| 20260505221831 | 10 | 40 | 3.2 | 12.9 | 0.00 | 0.03 | 0.03 | 31 | 1016.0 |
| 20260505221331 | 10 | 13 | 3.2 | 12.9 | 0.00 | 0.03 | 0.03 | 33 | 1016.0 |
| 20260505220831 | 10 | 13 | 3.2 | 12.9 | 0.00 | 0.03 | 0.03 | 33 | 1016.1 |
| 20260505220331 | 10 | 1 | 4.8 | 12.9 | 0.00 | 0.03 | 0.03 | 32 | 1016.2 |
| 20260505215831 | 10 | 19 | 3.2 | 12.9 | 0.00 | 0.03 | 0.03 | 32 | 1016.2 |
| 20260505215331 | 10 | 30 | 1.6 | 12.9 | 0.00 | 0.03 | 0.03 | 33 | 1016.2 |
| 20260505214830 | 10 | 331 | 1.6 | 12.9 | 0.00 | 0.03 | 0.03 | 33 | 1016.3 |
| 20260505214331 | 10 | 12 | 0.0 | 12.9 | 0.00 | 0.03 | 0.03 | 34 | 1016.4 |
| 20260505213831 | 10 | 4 | 4.8 | 12.9 | 0.00 | 0.03 | 0.03 | 33 | 1016.4 |
| 20260505213331 | 10 | 107 | 0.0 | 12.9 | 0.00 | 0.03 | 0.03 | 34 | 1016.4 |
| 20260505212831 | 10 | 0 | 3.2 | 12.9 | 0.00 | 0.03 | 0.03 | 34 | 1016.6 |
| 20260505212331 | 10 | 28 | 8.0 | 12.9 | 0.00 | 0.03 | 0.03 | 34 | 1016.5 |
| 20260505211831 | 10 | 50 | 0.0 | 12.9 | 0.00 | 0.03 | 0.03 | 33 | 1016.5 |
| 20260505211329 | 10 | 13 | 1.6 | 12.9 | 0.00 | 0.03 | 0.03 | 33 | 1016.6 |
| 20260505210831 | 10 | 61 | 4.8 | 12.9 | 0.00 | 0.03 | 0.03 | 34 | 1016.7 |
| 20260505210330 | 10 | 344 | 1.6 | 12.9 | 0.00 | 0.03 | 0.03 | 34 | 1016.8 |
| 20260505205830 | 10 | 48 | 0.0 | 12.9 | 0.00 | 0.03 | 0.03 | 35 | 1016.8 |
| 20260505205330 | 9 | 345 | 1.6 | 12.9 | 0.00 | 0.03 | 0.03 | 35 | 1016.8 |
| 20260505204830 | 9 | 18 | 4.8 | 12.9 | 0.00 | 0.03 | 0.03 | 34 | 1017.0 |
| 20260505204330 | 9 | 18 | 1.6 | 12.9 | 0.00 | 0.03 | 0.03 | 35 | 1016.9 |
| 20260505203830 | 9 | 12 | 3.2 | 12.9 | 0.00 | 0.03 | 0.03 | 35 | 1016.9 |
| 20260505203330 | 8 | 38 | 0.0 | 12.9 | 0.00 | 0.03 | 0.03 | 36 | 1017.0 |
| 20260505202830 | 9 | 10 | 1.6 | 12.9 | 0.00 | 0.03 | 0.03 | 35 | 1017.1 |
| 20260505202330 | 9 | 8 | 3.2 | 12.9 | 0.00 | 0.03 | 0.03 | 36 | 1017.1 |
| 20260505201830 | 9 | 33 | 1.6 | 12.9 | 0.00 | 0.03 | 0.03 | 36 | 1017.0 |
| 20260505201329 | 9 | 5 | 0.0 | 12.9 | 0.00 | 0.03 | 0.03 | 36 | 1017.0 |
| 20260505200829 | 9 | 16 | 4.8 | 12.9 | 0.00 | 0.03 | 0.03 | 35 | 1017.1 |
| 20260505200329 | 9 | 18 | 3.2 | 12.9 | 0.00 | 0.03 | 0.03 | 35 | 1017.2 |
| 20260505195831 | 9 | 5 | 1.6 | 11.3 | 0.00 | 0.03 | 0.03 | 34 | 1017.1 |
| 20260505195331 | 10 | 348 | 3.2 | 11.3 | 0.00 | 0.03 | 0.03 | 34 | 1017.2 |
| 20260505194831 | 10 | 5 | 0.0 | 11.3 | 0.00 | 0.03 | 0.03 | 34 | 1017.1 |
| 20260505194331 | 10 | 44 | 3.2 | 11.3 | 0.00 | 0.03 | 0.03 | 34 | 1017.3 |
| 20260505193831 | 9 | 5 | 1.6 | 11.3 | 0.00 | 0.03 | 0.03 | 35 | 1017.3 |
| 20260505193331 | 9 | 60 | 4.8 | 11.3 | 0.00 | 0.03 | 0.03 | 34 | 1017.2 |
| 20260505192830 | 9 | 55 | 1.6 | 11.3 | 0.00 | 0.03 | 0.03 | 35 | 1017.4 |
| 20260505192330 | 8 | 17 | 0.0 | 11.3 | 0.00 | 0.03 | 0.03 | 36 | 1017.4 |
| 20260505191829 | 8 | 358 | 1.6 | 11.3 | 0.00 | 0.03 | 0.03 | 35 | 1017.5 |
| 20260505191329 | 8 | 29 | 4.8 | 11.3 | 0.00 | 0.03 | 0.03 | 35 | 1017.4 |
| 20260505190829 | 8 | 138 | 1.6 | 11.3 | 0.00 | 0.03 | 0.03 | 36 | 1017.3 |
| 20260505190330 | 8 | 16 | 3.2 | 11.3 | 0.00 | 0.03 | 0.03 | 35 | 1017.4 |
| 20260505185830 | 8 | 8 | 1.6 | 11.3 | 0.00 | 0.03 | 0.03 | 36 | 1017.5 |
| 20260505185331 | 8 | 31 | 1.6 | 11.3 | 0.00 | 0.03 | 0.03 | 39 | 1017.5 |
| 20260505184829 | 8 | 13 | 4.8 | 11.3 | 0.00 | 0.03 | 0.03 | 36 | 1017.6 |
| 20260505184329 | 9 | 0 | 0.0 | 11.3 | 0.00 | 0.03 | 0.03 | 36 | 1017.5 |
| 20260505183829 | 9 | 21 | 4.8 | 11.3 | 0.00 | 0.03 | 0.03 | 39 | 1017.5 |
| 20260505183330 | 8 | 0 | 0.0 | 11.3 | 0.00 | 0.03 | 0.03 | 40 | 1017.5 |
| 20260505182830 | 8 | 22 | 3.2 | 11.3 | 0.00 | 0.03 | 0.03 | 40 | 1017.6 |
| 20260505182330 | 8 | 7 | 1.6 | 11.3 | 0.00 | 0.03 | 0.03 | 42 | 1017.6 |
| 20260505181831 | 8 | 42 | 1.6 | 11.3 | 0.00 | 0.03 | 0.03 | 40 | 1017.7 |
| 20260505181330 | 8 | 14 | 4.8 | 11.3 | 0.00 | 0.03 | 0.03 | 39 | 1017.7 |
| 20260505180830 | 8 | 31 | 1.6 | 11.3 | 0.00 | 0.03 | 0.03 | 41 | 1017.6 |
| 20260505180330 | 8 | 33 | 1.6 | 11.3 | 0.00 | 0.03 | 0.03 | 40 | 1017.6 |
| 20260505175829 | 8 | 42 | 0.0 | 11.3 | 0.00 | 0.03 | 0.03 | 42 | 1017.6 |
| 20260505175329 | 7 | 40 | 1.6 | 11.3 | 0.00 | 0.03 | 0.03 | 44 | 1017.5 |
| 20260505174830 | 7 | 11 | 0.0 | 11.3 | 0.00 | 0.03 | 0.03 | 44 | 1017.6 |
| 20260505174330 | 7 | 12 | 0.0 | 11.3 | 0.00 | 0.03 | 0.03 | 44 | 1017.6 |
| 20260505173835 | 6 | 24 | 1.6 | 11.3 | 0.00 | 0.03 | 0.03 | 46 | 1017.6 |
| 20260505173334 | 6 | 41 | 0.0 | 11.3 | 0.00 | 0.03 | 0.03 | 46 | 1017.6 |
| 20260505172835 | 6 | 11 | 1.6 | 11.3 | 0.00 | 0.03 | 0.03 | 48 | 1017.7 |
| 20260505172335 | 5 | 8 | 0.0 | 11.3 | 0.00 | 0.03 | 0.03 | 49 | 1017.7 |
| 20260505171833 | 5 | 29 | 0.0 | 11.3 | 0.00 | 0.03 | 0.03 | 49 | 1017.7 |
| 20260505171334 | 5 | 25 | 1.6 | 11.3 | 0.00 | 0.03 | 0.03 | 51 | 1017.7 |
| 20260505170833 | 5 | 0 | 1.6 | 11.3 | 0.00 | 0.03 | 0.03 | 50 | 1017.7 |
| 20260505170334 | 5 | 38 | 0.0 | 11.3 | 0.00 | 0.03 | 0.03 | 51 | 1017.6 |
| 20260505165835 | 5 | 344 | 1.6 | 11.3 | 0.00 | 0.03 | 0.03 | 52 | 1017.6 |
| 20260505165333 | 5 | 22 | 0.0 | 11.3 | 0.00 | 0.03 | 0.03 | 53 | 1017.6 |
| 20260505164834 | 5 | 7 | 3.2 | 11.3 | 0.00 | 0.03 | 0.03 | 54 | 1017.6 |
| 20260505164334 | 5 | 14 | 3.2 | 11.3 | 0.00 | 0.03 | 0.03 | 53 | 1017.6 |
| 20260505163834 | 5 | 21 | 3.2 | 11.3 | 0.00 | 0.03 | 0.03 | 54 | 1017.6 |
| 20260505163335 | 5 | 5 | 1.6 | 11.3 | 0.00 | 0.03 | 0.03 | 58 | 1017.5 |
| 20260505162833 | 5 | 5 | 0.0 | 11.3 | 0.00 | 0.03 | 0.03 | 58 | 1017.4 |
| 20260505162333 | 5 | 27 | 0.0 | 11.3 | 0.00 | 0.03 | 0.03 | 60 | 1017.4 |
| 20260505161834 | 4 | 28 | 0.0 | 11.3 | 0.00 | 0.03 | 0.03 | 61 | 1017.4 |
| 20260505161334 | 4 | 30 | 3.2 | 11.3 | 0.00 | 0.03 | 0.03 | 59 | 1017.4 |
| 20260505160834 | 4 | 355 | 1.6 | 11.3 | 0.00 | 0.03 | 0.03 | 62 | 1017.5 |
| 20260505160335 | 3 | 28 | 0.0 | 11.3 | 0.00 | 0.03 | 0.03 | 64 | 1017.5 |
| 20260505153334 | 3 | 36 | 1.6 | 11.3 | 0.00 | 0.03 | 0.03 | 66 | 1017.6 |
| 20260505152834 | 3 | 35 | 0.0 | 11.3 | 0.00 | 0.03 | 0.03 | 67 | 1017.5 |
| 20260505152333 | 3 | 35 | 0.0 | 11.3 | 0.00 | 0.03 | 0.03 | 68 | 1017.5 |
| 20260505151833 | 2 | 35 | 0.0 | 11.3 | 0.00 | 0.03 | 0.03 | 68 | 1017.6 |
| 20260505151333 | 2 | 26 | 0.0 | 11.3 | 0.00 | 0.03 | 0.03 | 67 | 1017.6 |
| 20260505150834 | 2 | 26 | 0.0 | 11.3 | 0.00 | 0.03 | 0.03 | 68 | 1017.5 |
| 20260505150334 | 2 | 26 | 0.0 | 11.3 | 0.00 | 0.03 | 0.03 | 70 | 1017.5 |
| 20260505140334 | 2 | 53 | 0.0 | 11.3 | 0.03 | 0.03 | 0.03 | 74 | 1017.3 |
| 20260505124833 | 2 | 25 | 0.0 | 11.3 | 0.00 | 0.00 | 0.00 | 68 | 1017.2 |
| 20260505124333 | 2 | 25 | 0.0 | 11.3 | 0.00 | 0.00 | 0.00 | 68 | 1017.2 |
| 20260505123833 | 2 | 25 | 0.0 | 11.3 | 0.00 | 0.00 | 0.00 | 69 | 1017.1 |
| 20260505123333 | 2 | 25 | 0.0 | 11.3 | 0.00 | 0.00 | 0.00 | 69 | 1017.1 |
| 20260505122833 | 2 | 25 | 0.0 | 11.3 | 0.00 | 0.00 | 0.00 | 69 | 1017.0 |
| 20260505122332 | 1 | 25 | 0.0 | 11.3 | 0.00 | 0.00 | 0.00 | 69 | 1017.0 |
| 20260505121832 | 1 | 25 | 0.0 | 11.3 | 0.00 | 0.00 | 0.00 | 70 | 1016.9 |
| 20260505121332 | 1 | 25 | 0.0 | 11.3 | 0.00 | 0.00 | 0.00 | 70 | 1016.9 |
| 20260505120834 | 1 | 25 | 0.0 | 11.3 | 0.00 | 0.00 | 0.00 | 70 | 1016.9 |
| 20260505120334 | 1 | 25 | 0.0 | 11.3 | 0.00 | 0.00 | 0.00 | 71 | 1016.9 |
| 20260505115834 | 1 | 25 | 0.0 | 11.3 | 0.00 | 0.00 | 0.00 | 71 | 1016.8 |
| 20260505115333 | 1 | 25 | 0.0 | 11.3 | 0.00 | 0.00 | 0.00 | 72 | 1016.7 |
| 20260505114832 | 1 | 24 | 0.0 | 11.3 | 0.00 | 0.00 | 0.00 | 73 | 1016.7 |
| 20260505114333 | 1 | 44 | 0.0 | 11.3 | 0.00 | 0.00 | 0.00 | 72 | 1016.7 |
| 20260505113832 | 1 | 46 | 0.0 | 11.3 | 0.00 | 0.00 | 0.00 | 72 | 1016.7 |
| 20260505113333 | 1 | 8 | 0.0 | 11.3 | 0.00 | 0.00 | 0.00 | 72 | 1016.7 |
| 20260505112832 | 2 | 26 | 0.0 | 11.3 | 0.00 | 0.00 | 0.00 | 72 | 1016.7 |
| 20260505112333 | 2 | 23 | 0.0 | 11.3 | 0.00 | 0.00 | 0.00 | 72 | 1016.6 |
| 20260505111833 | 2 | 9 | 1.6 | 11.3 | 0.00 | 0.00 | 0.00 | 72 | 1016.8 |
| 20260505111334 | 2 | 11 | 0.0 | 11.3 | 0.00 | 0.00 | 0.00 | 71 | 1016.6 |
| 20260505110834 | 2 | 0 | 0.0 | 11.3 | 0.00 | 0.00 | 0.00 | 70 | 1016.6 |
| 20260505110334 | 2 | 18 | 1.6 | 11.3 | 0.00 | 0.00 | 0.00 | 70 | 1016.7 |
| 20260505101832 | 3 | 16 | 1.6 | 9.7 | 0.00 | 0.00 | 0.00 | 69 | 1016.3 |
| 20260505101332 | 3 | 42 | 1.6 | 9.7 | 0.00 | 0.00 | 0.00 | 68 | 1016.3 |
| 20260505100833 | 3 | 22 | 3.2 | 9.7 | 0.00 | 0.00 | 0.00 | 68 | 1016.2 |
| 20260505100333 | 3 | 11 | 1.6 | 9.7 | 0.00 | 0.00 | 0.00 | 68 | 1016.0 |
| 20260505095832 | 3 | 14 | 1.6 | 9.7 | 0.00 | 0.00 | 0.00 | 67 | 1016.1 |
| 20260505095332 | 3 | 8 | 3.2 | 9.7 | 0.00 | 0.00 | 0.00 | 67 | 1016.0 |
| 20260505094832 | 3 | 5 | 1.6 | 9.7 | 0.00 | 0.00 | 0.00 | 66 | 1016.0 |
| 20260505094332 | 3 | 21 | 1.6 | 9.7 | 0.00 | 0.00 | 0.00 | 65 | 1016.0 |
| 20260505093832 | 3 | 0 | 3.2 | 9.7 | 0.00 | 0.00 | 0.00 | 65 | 1015.9 |
| 20260505093332 | 3 | 1 | 3.2 | 9.7 | 0.00 | 0.00 | 0.00 | 64 | 1015.9 |
| 20260505092832 | 3 | 15 | 1.6 | 9.7 | 0.00 | 0.00 | 0.00 | 63 | 1015.9 |
| 20260505092332 | 3 | 355 | 1.6 | 6.4 | 0.00 | 0.00 | 0.00 | 63 | 1015.9 |
| 20260505091833 | 3 | 5 | 1.6 | 6.4 | 0.00 | 0.00 | 0.00 | 62 | 1015.9 |
| 20260505091333 | 4 | 19 | 3.2 | 6.4 | 0.00 | 0.00 | 0.00 | 62 | 1015.9 |
| 20260505090832 | 4 | 1 | 1.6 | 6.4 | 0.00 | 0.00 | 0.00 | 61 | 1015.8 |
| 20260505090332 | 4 | 9 | 0.0 | 6.4 | 0.00 | 0.00 | 0.00 | 60 | 1015.7 |
| 20260505085832 | 4 | 2 | 1.6 | 6.4 | 0.00 | 0.00 | 0.00 | 60 | 1015.7 |
| 20260505085332 | 4 | 9 | 0.0 | 6.4 | 0.00 | 0.00 | 0.00 | 59 | 1015.7 |